CEB4502 RPMD-RPVM

Flight info

Callsign CEB4502
Flight time 0h 45m
Altitude 26000
Route JOFER3P JOFER W8 BOHOL BOHOL3P
Aircraft A320/M-SDE3FGHIRWY/LB1

Departure

Time 2026-04-28 07:25
Airport Francisco Bangoy International Airport (RPMD)

Arrival

Time 2026-04-28 08:11
Airport Mactan Cebu International Airport (RPVM)
Time Latitude Longitude Altitude Speed Heading
2026-04-28 06:54 7.13072 125.64694 117 ft 0 kts 319°
2026-04-28 07:13 7.13070 125.64696 117 ft 1 kts 319°
2026-04-28 07:13 7.13059 125.64706 117 ft 2 kts 319°
2026-04-28 07:13 7.13048 125.64716 117 ft 2 kts 319°
2026-04-28 07:13 7.13036 125.64726 117 ft 2 kts 319°
2026-04-28 07:14 7.13025 125.64735 117 ft 2 kts 319°
2026-04-28 07:14 7.13011 125.64743 117 ft 2 kts 351°
2026-04-28 07:14 7.12997 125.64743 117 ft 2 kts 18°
2026-04-28 07:14 7.12984 125.64735 117 ft 1 kts 45°
2026-04-28 07:15 7.12979 125.64731 117 ft 0 kts 55°
2026-04-28 07:19 7.12981 125.64733 117 ft 1 kts 53°
2026-04-28 07:19 7.12993 125.64746 117 ft 3 kts 48°
2026-04-28 07:19 7.13011 125.64766 117 ft 4 kts 48°
2026-04-28 07:20 7.13015 125.64798 117 ft 5 kts 115°
2026-04-28 07:20 7.12987 125.64828 117 ft 6 kts 137°
2026-04-28 07:20 7.12952 125.64858 117 ft 6 kts 139°
2026-04-28 07:20 7.12915 125.64890 117 ft 7 kts 139°
2026-04-28 07:21 7.12875 125.64929 117 ft 7 kts 113°
2026-04-28 07:21 7.12898 125.64980 117 ft 9 kts 50°
2026-04-28 07:21 7.12942 125.65032 117 ft 10 kts 49°
2026-04-28 07:22 7.13046 125.65153 117 ft 12 kts 50°
2026-04-28 07:22 7.13104 125.65221 117 ft 13 kts 49°
2026-04-28 07:22 7.13165 125.65292 117 ft 14 kts 49°
2026-04-28 07:22 7.13230 125.65369 117 ft 14 kts 50°
2026-04-28 07:23 7.13300 125.65449 117 ft 15 kts 49°
2026-04-28 07:23 7.13364 125.65509 117 ft 10 kts 11°
2026-04-28 07:23 7.13436 125.65518 117 ft 10 kts 40°
2026-04-28 07:23 7.13450 125.65573 117 ft 8 kts 139°
2026-04-28 07:24 7.13412 125.65577 117 ft 5 kts 227°
2026-04-28 07:24 7.13394 125.65557 117 ft 0 kts 229°
2026-04-28 07:24 7.13370 125.65528 117 ft 23 kts 229°
2026-04-28 07:24 7.13101 125.65218 117 ft 91 kts 230°
2026-04-28 07:25 7.12551 125.64580 118 ft 148 kts 230°
2026-04-28 07:25 7.11823 125.63716 442 ft 164 kts 226°
2026-04-28 07:25 7.11072 125.62865 998 ft 163 kts 226°
2026-04-28 07:25 7.10332 125.61993 1518 ft 168 kts 234°
2026-04-28 07:26 7.09967 125.60841 1852 ft 184 kts 275°
2026-04-28 07:26 7.10516 125.59679 2254 ft 190 kts 321°
2026-04-28 07:26 7.11676 125.59074 2789 ft 189 kts 340°
2026-04-28 07:26 7.12906 125.58539 3264 ft 198 kts 335°
2026-04-28 07:27 7.14151 125.57800 3617 ft 216 kts 328°
2026-04-28 07:27 7.15429 125.56848 3879 ft 240 kts 323°
2026-04-28 07:27 7.16758 125.55726 4271 ft 258 kts 320°
2026-04-28 07:27 7.18138 125.54485 4719 ft 274 kts 320°
2026-04-28 07:28 7.19570 125.53159 5434 ft 279 kts 319°
2026-04-28 07:28 7.20983 125.51832 6227 ft 280 kts 319°
2026-04-28 07:28 7.22421 125.50477 6981 ft 283 kts 319°
2026-04-28 07:28 7.23874 125.49107 7691 ft 287 kts 319°
2026-04-28 07:29 7.25322 125.47737 8376 ft 291 kts 319°
2026-04-28 07:29 7.26817 125.46324 9061 ft 295 kts 319°
2026-04-28 07:29 7.28318 125.44904 9725 ft 300 kts 319°
2026-04-28 07:29 7.29856 125.43449 10396 ft 304 kts 319°
2026-04-28 07:30 7.31422 125.41971 10779 ft 318 kts 319°
2026-04-28 07:30 7.33119 125.40445 11079 ft 334 kts 324°
2026-04-28 07:30 7.35171 125.39191 11358 ft 347 kts 337°
2026-04-28 07:30 7.37495 125.38361 11621 ft 360 kts 346°
2026-04-28 07:31 7.39944 125.37678 11859 ft 374 kts 347°
2026-04-28 07:31 7.42518 125.36984 12149 ft 384 kts 347°
2026-04-28 07:31 7.45116 125.36279 12650 ft 388 kts 346°
2026-04-28 07:31 7.47718 125.35566 13180 ft 390 kts 346°
2026-04-28 07:32 7.50372 125.34833 13680 ft 392 kts 346°
2026-04-28 07:32 7.53026 125.34098 14151 ft 395 kts 346°
2026-04-28 07:32 7.55706 125.33353 14599 ft 398 kts 346°
2026-04-28 07:32 7.58411 125.32600 15050 ft 401 kts 346°
2026-04-28 07:33 7.61096 125.31851 15474 ft 403 kts 346°
2026-04-28 07:33 7.63848 125.31084 15884 ft 406 kts 346°
2026-04-28 07:33 7.66579 125.30322 16280 ft 409 kts 346°
2026-04-28 07:33 7.69381 125.29541 16680 ft 411 kts 346°
2026-04-28 07:34 7.72144 125.28770 17061 ft 414 kts 346°
2026-04-28 07:34 7.74920 125.27994 17438 ft 415 kts 346°
2026-04-28 07:34 7.77733 125.27208 17821 ft 417 kts 346°
2026-04-28 07:34 7.80545 125.26423 18178 ft 419 kts 346°
2026-04-28 07:35 7.83357 125.25636 18513 ft 421 kts 346°
2026-04-28 07:35 7.86209 125.24837 18847 ft 423 kts 346°
2026-04-28 07:35 7.89031 125.24049 19158 ft 425 kts 346°
2026-04-28 07:35 7.91907 125.23247 19475 ft 428 kts 346°
2026-04-28 07:36 7.94794 125.22374 19776 ft 430 kts 343°
2026-04-28 07:36 7.97620 125.21315 20085 ft 433 kts 339°
2026-04-28 07:36 8.00413 125.20038 20406 ft 436 kts 335°
2026-04-28 07:36 8.03120 125.18651 20713 ft 438 kts 334°
2026-04-28 07:37 8.05821 125.17239 20994 ft 440 kts 334°
2026-04-28 07:37 8.08578 125.15795 21286 ft 442 kts 334°
2026-04-28 07:37 8.11314 125.14363 21581 ft 444 kts 334°
2026-04-28 07:37 8.14091 125.12911 21861 ft 445 kts 334°
2026-04-28 07:38 8.16886 125.11453 22149 ft 447 kts 334°
2026-04-28 07:38 8.19639 125.10016 22429 ft 449 kts 334°
2026-04-28 07:38 8.22462 125.08543 22693 ft 450 kts 334°
2026-04-28 07:38 8.25242 125.07094 22943 ft 452 kts 334°
2026-04-28 07:39 8.28083 125.05610 23193 ft 454 kts 334°
2026-04-28 07:39 8.30880 125.04150 23439 ft 456 kts 334°
2026-04-28 07:39 8.33722 125.02668 23678 ft 458 kts 334°
2026-04-28 07:39 8.36600 125.01170 23912 ft 461 kts 334°
2026-04-28 07:40 8.39495 124.99663 24153 ft 462 kts 334°
2026-04-28 07:40 8.42358 124.98171 24387 ft 464 kts 334°
2026-04-28 07:40 8.45241 124.96667 24613 ft 466 kts 334°
2026-04-28 07:40 8.48157 124.95144 24836 ft 467 kts 334°
2026-04-28 07:41 8.51081 124.93615 25051 ft 469 kts 334°
2026-04-28 07:41 8.53980 124.92099 25264 ft 471 kts 334°
2026-04-28 07:41 8.56910 124.90566 25476 ft 472 kts 334°
2026-04-28 07:41 8.59848 124.89030 25675 ft 474 kts 334°
2026-04-28 07:42 8.62783 124.87494 25858 ft 475 kts 334°
2026-04-28 07:42 8.65714 124.85960 25944 ft 477 kts 334°
2026-04-28 07:42 8.68670 124.84412 25945 ft 476 kts 334°
2026-04-28 07:42 8.71609 124.82872 25939 ft 476 kts 334°
2026-04-28 07:43 8.74563 124.81323 25936 ft 477 kts 334°
2026-04-28 07:43 8.77536 124.79765 25923 ft 477 kts 334°
2026-04-28 07:43 8.80489 124.78220 25900 ft 477 kts 334°
2026-04-28 07:43 8.83410 124.76694 25875 ft 477 kts 334°
2026-04-28 07:44 8.86388 124.75138 25858 ft 477 kts 334°
2026-04-28 07:44 8.89360 124.73582 25844 ft 477 kts 334°
2026-04-28 07:44 8.92295 124.72044 25838 ft 477 kts 334°
2026-04-28 07:44 8.95243 124.70499 25836 ft 477 kts 334°
2026-04-28 07:45 8.98205 124.68946 25833 ft 477 kts 334°
2026-04-28 07:45 9.01038 124.67461 25831 ft 477 kts 334°
2026-04-28 07:45 9.04000 124.65910 25832 ft 477 kts 334°
2026-04-28 07:45 9.06961 124.64362 25801 ft 477 kts 334°
2026-04-28 07:46 9.09892 124.62828 25295 ft 474 kts 334°
2026-04-28 07:46 9.12831 124.61289 24639 ft 470 kts 334°
2026-04-28 07:46 9.15706 124.59779 24016 ft 464 kts 334°
2026-04-28 07:46 9.18561 124.58280 23423 ft 458 kts 334°
2026-04-28 07:47 9.21370 124.56805 22842 ft 452 kts 334°
2026-04-28 07:47 9.24127 124.55357 22272 ft 446 kts 334°
2026-04-28 07:47 9.26886 124.53908 21707 ft 441 kts 334°
2026-04-28 07:47 9.29615 124.52474 21141 ft 436 kts 334°
2026-04-28 07:48 9.32276 124.51076 20583 ft 432 kts 334°
2026-04-28 07:48 9.34932 124.49680 20017 ft 428 kts 334°
2026-04-28 07:48 9.37590 124.48282 19443 ft 425 kts 334°
2026-04-28 07:48 9.40196 124.46910 18880 ft 421 kts 334°
2026-04-28 07:49 9.42804 124.45538 18310 ft 418 kts 334°
2026-04-28 07:49 9.45423 124.44159 17733 ft 415 kts 334°
2026-04-28 07:49 9.47964 124.42821 17173 ft 412 kts 335°
2026-04-28 07:49 9.50511 124.41481 16603 ft 410 kts 334°
2026-04-28 07:50 9.53066 124.40139 16027 ft 407 kts 334°
2026-04-28 07:50 9.55532 124.38763 15459 ft 406 kts 330°
2026-04-28 07:50 9.57898 124.37128 14871 ft 405 kts 324°
2026-04-28 07:50 9.60061 124.35281 14296 ft 404 kts 319°
2026-04-28 07:51 9.62146 124.33312 13730 ft 401 kts 317°
2026-04-28 07:51 9.64177 124.31358 13165 ft 399 kts 317°
2026-04-28 07:51 9.66178 124.29432 12607 ft 396 kts 317°
2026-04-28 07:51 9.68183 124.27504 12048 ft 393 kts 317°
2026-04-28 07:52 9.70165 124.25605 11553 ft 387 kts 317°
2026-04-28 07:52 9.72088 124.23765 11279 ft 362 kts 317°
2026-04-28 07:52 9.73841 124.22086 11059 ft 335 kts 317°
2026-04-28 07:52 9.75498 124.20499 10855 ft 310 kts 317°
2026-04-28 07:53 9.77027 124.19037 10677 ft 299 kts 318°
2026-04-28 07:53 9.78529 124.17602 10506 ft 295 kts 318°
2026-04-28 07:53 9.80028 124.16172 10352 ft 293 kts 318°
2026-04-28 07:53 9.81505 124.14762 10206 ft 291 kts 318°
2026-04-28 07:54 9.82983 124.13354 10070 ft 289 kts 318°
2026-04-28 07:54 9.84468 124.11937 9790 ft 290 kts 319°
2026-04-28 07:54 9.85933 124.10541 9436 ft 290 kts 319°
2026-04-28 07:54 9.87407 124.09134 9086 ft 289 kts 319°
2026-04-28 07:55 9.88878 124.07730 8740 ft 288 kts 318°
2026-04-28 07:55 9.90322 124.06351 8401 ft 288 kts 318°
2026-04-28 07:55 9.91778 124.04959 8058 ft 287 kts 318°
2026-04-28 07:55 9.93237 124.03564 7719 ft 286 kts 318°
2026-04-28 07:56 9.94694 124.02170 7374 ft 285 kts 318°
2026-04-28 07:56 9.96118 124.00808 7042 ft 284 kts 318°
2026-04-28 07:56 9.97570 123.99418 6709 ft 283 kts 318°
2026-04-28 07:56 9.99007 123.98041 6367 ft 283 kts 318°
2026-04-28 07:57 10.00439 123.96672 6036 ft 282 kts 319°
2026-04-28 07:57 10.01856 123.95315 5711 ft 281 kts 319°
2026-04-28 07:57 10.03299 123.93935 5382 ft 280 kts 319°
2026-04-28 07:57 10.04705 123.92588 5060 ft 279 kts 319°
2026-04-28 07:58 10.06087 123.91174 4723 ft 283 kts 308°
2026-04-28 07:58 10.06908 123.89347 4362 ft 287 kts 281°
2026-04-28 07:58 10.06989 123.87335 4047 ft 286 kts 263°
2026-04-28 07:58 10.06519 123.85400 3837 ft 284 kts 251°
2026-04-28 07:59 10.05777 123.83543 3442 ft 285 kts 238°
2026-04-28 07:59 10.04630 123.81906 3097 ft 283 kts 230°
2026-04-28 07:59 10.03363 123.80396 2973 ft 280 kts 220°
2026-04-28 07:59 10.01694 123.79400 2962 ft 275 kts 192°
2026-04-28 08:00 9.99836 123.79295 2972 ft 267 kts 166°
2026-04-28 08:00 9.98023 123.79745 2979 ft 266 kts 160°
2026-04-28 08:00 9.96253 123.80326 2985 ft 264 kts 153°
2026-04-28 08:00 9.94785 123.81395 2978 ft 256 kts 127°
2026-04-28 08:01 9.93750 123.82868 2985 ft 254 kts 120°
2026-04-28 08:01 9.92818 123.84399 2984 ft 254 kts 118°
2026-04-28 08:01 9.91944 123.85957 2986 ft 252 kts 110°
2026-04-28 08:01 9.91769 123.87690 2978 ft 249 kts 76°
2026-04-28 08:02 9.92508 123.89239 2982 ft 240 kts 52°
2026-04-28 08:02 9.93762 123.90299 2974 ft 228 kts 30°
2026-04-28 08:02 9.95247 123.90760 2970 ft 221 kts
2026-04-28 08:02 9.96806 123.90608 2976 ft 228 kts 346°
2026-04-28 08:03 9.98292 123.89983 2982 ft 231 kts 339°
2026-04-28 08:03 9.99762 123.89286 2983 ft 231 kts 339°
2026-04-28 08:03 10.01245 123.88579 2981 ft 232 kts 339°
2026-04-28 08:03 10.02712 123.87884 2980 ft 232 kts 339°
2026-04-28 08:04 10.04168 123.87202 2976 ft 232 kts 339°
2026-04-28 08:04 10.05662 123.86504 2977 ft 232 kts 340°
2026-04-28 08:04 10.07127 123.85822 2978 ft 232 kts 340°
2026-04-28 08:04 10.08601 123.85138 2973 ft 232 kts 340°
2026-04-28 08:05 10.10068 123.84460 2971 ft 232 kts 339°
2026-04-28 08:05 10.11572 123.83761 2969 ft 232 kts 339°
2026-04-28 08:05 10.13048 123.83076 2941 ft 232 kts 339°
2026-04-28 08:05 10.14563 123.82548 2884 ft 226 kts
2026-04-28 08:06 10.16035 123.82905 2845 ft 212 kts 36°
2026-04-28 08:06 10.17086 123.83858 2830 ft 196 kts 49°
2026-04-28 08:06 10.18029 123.84846 2811 ft 194 kts 48°
2026-04-28 08:06 10.18989 123.85834 2776 ft 193 kts 48°
2026-04-28 08:07 10.19944 123.86804 2736 ft 193 kts 48°
2026-04-28 08:07 10.20863 123.87729 2720 ft 178 kts 48°
2026-04-28 08:07 10.21725 123.88593 2417 ft 170 kts 48°
2026-04-28 08:07 10.22546 123.89417 2167 ft 160 kts 48°
2026-04-28 08:08 10.23312 123.90187 1940 ft 150 kts 48°
2026-04-28 08:08 10.24036 123.90913 1731 ft 142 kts 49°
2026-04-28 08:08 10.24744 123.91628 1549 ft 142 kts 49°
2026-04-28 08:08 10.25442 123.92336 1363 ft 142 kts 47°
2026-04-28 08:09 10.26146 123.93042 1177 ft 138 kts 49°
2026-04-28 08:09 10.26805 123.93707 986 ft 131 kts 47°
2026-04-28 08:09 10.27448 123.94371 791 ft 130 kts 46°
2026-04-28 08:09 10.28111 123.94996 649 ft 130 kts 44°
2026-04-28 08:10 10.28749 123.95657 477 ft 130 kts 45°
2026-04-28 08:10 10.29403 123.96299 268 ft 129 kts 46°
2026-04-28 08:10 10.30044 123.96943 123 ft 130 kts 43°
2026-04-28 08:10 10.30676 123.97587 37 ft 118 kts 51°
2026-04-28 08:11 10.31135 123.98053 36 ft 69 kts 43°
2026-04-28 08:11 10.31356 123.98277 36 ft 21 kts 44°
2026-04-28 08:11 10.31440 123.98276 36 ft 9 kts 314°
2026-04-28 08:11 10.31493 123.98223 36 ft 11 kts 316°
2026-04-28 08:12 10.31545 123.98168 36 ft 10 kts 315°
2026-04-28 08:12 10.31568 123.98113 36 ft 8 kts 255°
2026-04-28 08:12 10.31524 123.98064 36 ft 10 kts 223°
2026-04-28 08:12 10.31471 123.98009 36 ft 11 kts 225°
2026-04-28 08:13 10.31414 123.97949 36 ft 12 kts 226°
2026-04-28 08:13 10.31363 123.97891 36 ft 6 kts 264°
2026-04-28 08:13 10.31396 123.97851 36 ft 6 kts 315°
2026-04-28 08:13 10.31410 123.97836 36 ft 0 kts 313°
2026-04-28 08:14 10.31411 123.97835 36 ft 0 kts 313°